Location: LDNL
(36.4545°S, 141.6685°E)
Time: 03:27:20
(UTC+11:00)

Vanguard 2 - Pass Details

Date: 18 August 2022
Orbit: 552 x 2934 km, 32.9° (Epoch: 06 October)

Event Time Altitude Azimuth Distance (km) Brightness Sun altitude
Rises 16:31:17 0° 289° (WNW) 6,666 14.0 16.0°
Reaches altitude 10° 16:35:36 10° 291° (WNW) 5,738 14.4 15.2°
Maximum altitude 16:53:35 74° 11° (N) 2,797 10.6 12.0°
Drops below altitude 10° 17:07:25 10° 92° (E) 4,562 10.9 9.5°
Sets 17:10:26 0° 93° (E) 5,293 11.2 8.9°
